SBI703 UNNT-UUDD

Flight info

Callsign SBI703
Flight time N/A
Altitude 32000
Route OGAMA1K OGAMA A308 OSNAB G828 SZ A487 BENAK L158 GINUR/K0846F340 L158 APTAR T787 URAGO URAGO3N
Aircraft A321/M-SDE3FGHIRWY/LB1

Departure

Time 2026-04-29 15:36
Airport Novosibirsk Tolmachevo Airport (UNNT)

Arrival

Time N/A
Airport Domodedovo International Airport (UUDD)
Time Latitude Longitude Altitude Speed Heading
2026-04-29 15:15 55.00960 82.66473 373 ft 0 kts 170°
2026-04-29 15:25 55.00961 82.66472 373 ft 2 kts 170°
2026-04-29 15:25 55.00978 82.66467 373 ft 2 kts 173°
2026-04-29 15:25 55.00994 82.66463 373 ft 2 kts 173°
2026-04-29 15:26 55.01011 82.66460 373 ft 2 kts 175°
2026-04-29 15:26 55.01027 82.66458 373 ft 2 kts 178°
2026-04-29 15:26 55.01044 82.66457 373 ft 2 kts 181°
2026-04-29 15:26 55.01060 82.66459 373 ft 2 kts 187°
2026-04-29 15:27 55.01076 82.66463 373 ft 2 kts 194°
2026-04-29 15:27 55.01092 82.66471 373 ft 2 kts 185°
2026-04-29 15:27 55.01096 82.66472 373 ft 0 kts 173°
2026-04-29 15:30 55.01078 82.66478 373 ft 5 kts 167°
2026-04-29 15:30 55.01060 82.66534 373 ft 7 kts 83°
2026-04-29 15:30 55.01075 82.66611 373 ft 6 kts 69°
2026-04-29 15:30 55.01089 82.66674 373 ft 7 kts 71°
2026-04-29 15:31 55.01098 82.66795 373 ft 13 kts 89°
2026-04-29 15:31 55.01081 82.66968 373 ft 14 kts 84°
2026-04-29 15:31 55.01095 82.67132 373 ft 13 kts 81°
2026-04-29 15:31 55.01099 82.67278 373 ft 11 kts 86°
2026-04-29 15:32 55.01110 82.67403 373 ft 10 kts 81°
2026-04-29 15:32 55.01142 82.67483 373 ft 7 kts 31°
2026-04-29 15:32 55.01182 82.67524 373 ft 6 kts 31°
2026-04-29 15:32 55.01223 82.67567 373 ft 9 kts 31°
2026-04-29 15:33 55.01293 82.67640 373 ft 12 kts 31°
2026-04-29 15:33 55.01350 82.67699 372 ft 0 kts 31°
2026-04-29 15:33 55.01356 82.67706 372 ft 2 kts 31°
2026-04-29 15:34 55.01379 82.67730 372 ft 5 kts 31°
2026-04-29 15:34 55.01421 82.67773 372 ft 9 kts 30°
2026-04-29 15:34 55.01485 82.67776 371 ft 9 kts 306°
2026-04-29 15:34 55.01485 82.67710 371 ft 0 kts 262°
2026-04-29 15:35 55.01482 82.67675 371 ft 17 kts 262°
2026-04-29 15:35 55.01422 82.67027 374 ft 87 kts 261°
2026-04-29 15:35 55.01297 82.65642 373 ft 141 kts 261°
2026-04-29 15:36 55.01120 82.63693 393 ft 181 kts 260°
2026-04-29 15:36 55.00924 82.61518 1030 ft 176 kts 259°
2026-04-29 15:36 55.00724 82.59368 1400 ft 187 kts 257°
2026-04-29 15:36 55.00506 82.57014 1559 ft 205 kts 257°
2026-04-29 15:37 55.00283 82.54554 2036 ft 210 kts 258°
2026-04-29 15:37 55.00367 82.51891 2204 ft 241 kts 286°
2026-04-29 15:37 55.01342 82.49316 2515 ft 262 kts 310°
2026-04-29 15:37 55.02686 82.47097 3154 ft 269 kts 317°
2026-04-29 15:38 55.04139 82.45023 3886 ft 271 kts 319°
2026-04-29 15:38 55.05607 82.42968 4661 ft 270 kts 319°
2026-04-29 15:38 55.07053 82.40881 5416 ft 270 kts 319°
2026-04-29 15:38 55.08482 82.38738 6108 ft 271 kts 318°
2026-04-29 15:39 55.09903 82.36544 6778 ft 273 kts 317°
2026-04-29 15:39 55.11314 82.34314 7393 ft 275 kts 316°
2026-04-29 15:39 55.12726 82.32052 8013 ft 277 kts 316°
2026-04-29 15:39 55.14146 82.29765 8621 ft 279 kts 316°
2026-04-29 15:40 55.15575 82.27459 9241 ft 280 kts 316°
2026-04-29 15:40 55.16996 82.25166 9852 ft 282 kts 316°
2026-04-29 15:40 55.18447 82.22826 10429 ft 284 kts 316°
2026-04-29 15:40 55.19943 82.20410 10626 ft 302 kts 316°
2026-04-29 15:41 55.21390 82.17610 10756 ft 319 kts 304°
2026-04-29 15:41 55.22503 82.14150 10879 ft 335 kts 293°
2026-04-29 15:41 55.23444 82.10302 11000 ft 352 kts 292°
2026-04-29 15:41 55.24430 82.06280 11138 ft 367 kts 292°
2026-04-29 15:42 55.25448 82.02134 11524 ft 373 kts 292°
2026-04-29 15:42 55.26479 81.97946 12035 ft 375 kts 292°
2026-04-29 15:42 55.27518 81.93726 12563 ft 378 kts 292°
2026-04-29 15:42 55.28561 81.89481 13090 ft 380 kts 292°
2026-04-29 15:43 55.29607 81.85212 13588 ft 382 kts 292°
2026-04-29 15:43 55.30655 81.80918 14109 ft 384 kts 292°
2026-04-29 15:43 55.31710 81.76588 14546 ft 386 kts 292°
2026-04-29 15:43 55.32766 81.72239 14982 ft 388 kts 292°
2026-04-29 15:44 55.33826 81.67860 15419 ft 390 kts 292°
2026-04-29 15:44 55.34887 81.63480 15850 ft 392 kts 292°
2026-04-29 15:44 55.35964 81.59036 16280 ft 394 kts 292°
2026-04-29 15:44 55.37034 81.54592 16707 ft 396 kts 291°
2026-04-29 15:45 55.38093 81.50178 17141 ft 397 kts 291°
2026-04-29 15:45 55.39168 81.45693 17573 ft 399 kts 291°
2026-04-29 15:45 55.40255 81.41179 17981 ft 401 kts 291°
2026-04-29 15:45 55.41344 81.36658 18391 ft 403 kts 291°
2026-04-29 15:46 55.42440 81.32103 18778 ft 405 kts 291°
2026-04-29 15:46 55.43540 81.27525 19131 ft 407 kts 291°
2026-04-29 15:46 55.44642 81.22916 19483 ft 408 kts 291°
2026-04-29 15:46 55.45743 81.18283 19839 ft 410 kts 291°
2026-04-29 15:47 55.46806 81.13621 20190 ft 411 kts 287°
2026-04-29 15:47 55.47550 81.08748 20521 ft 412 kts 282°
2026-04-29 15:47 55.48227 81.03825 20867 ft 414 kts 282°
2026-04-29 15:47 55.48910 80.98880 21199 ft 416 kts 282°
2026-04-29 15:48 55.49597 80.93910 21537 ft 418 kts 282°
2026-04-29 15:48 55.50284 80.88919 21857 ft 419 kts 282°
2026-04-29 15:48 55.50964 80.83970 22183 ft 421 kts 282°
2026-04-29 15:48 55.51653 80.78934 22503 ft 423 kts 282°
2026-04-29 15:49 55.52342 80.73872 22828 ft 425 kts 282°
2026-04-29 15:49 55.53029 80.68786 23153 ft 427 kts 282°
2026-04-29 15:49 55.53717 80.63694 23464 ft 428 kts 282°
2026-04-29 15:49 55.54410 80.58548 23777 ft 430 kts 282°
2026-04-29 15:50 55.55102 80.53395 24049 ft 432 kts 282°
2026-04-29 15:50 55.55794 80.48223 24301 ft 433 kts 282°
2026-04-29 15:50 55.56487 80.43039 24548 ft 434 kts 282°
2026-04-29 15:50 55.56944 80.39590 24722 ft 435 kts 282°
2026-04-29 15:51 55.57856 80.32675 25056 ft 437 kts 282°
2026-04-29 15:51 55.58544 80.27437 25312 ft 438 kts 281°
2026-04-29 15:51 55.59230 80.22178 25577 ft 439 kts 281°
2026-04-29 15:51 55.59917 80.16927 25940 ft 438 kts 281°
2026-04-29 15:52 55.60603 80.11692 26316 ft 436 kts 281°
2026-04-29 15:52 55.61062 80.08171 26562 ft 435 kts 281°
2026-04-29 15:52 55.61738 80.02954 26931 ft 434 kts 281°
2026-04-29 15:52 55.62407 79.97756 27288 ft 433 kts 280°
2026-04-29 15:53 55.62798 79.92563 27610 ft 430 kts 271°
2026-04-29 15:53 55.62708 79.87294 27935 ft 429 kts 263°
2026-04-29 15:53 55.62137 79.82129 28261 ft 428 kts 254°
2026-04-29 15:53 55.61283 79.77089 28576 ft 427 kts 253°
2026-04-29 15:54 55.60428 79.72058 28902 ft 427 kts 253°
2026-04-29 15:54 55.59584 79.67040 29232 ft 426 kts 253°
2026-04-29 15:54 55.58741 79.62020 29567 ft 425 kts 253°
2026-04-29 15:54 55.57900 79.57024 29887 ft 424 kts 253°
2026-04-29 15:55 55.57055 79.52031 30215 ft 423 kts 253°
2026-04-29 15:55 55.56212 79.47061 30505 ft 422 kts 253°
2026-04-29 15:55 55.55376 79.42113 30796 ft 420 kts 253°
2026-04-29 15:55 55.54538 79.37183 31083 ft 419 kts 253°
2026-04-29 15:56 55.53698 79.32263 31371 ft 417 kts 253°
2026-04-29 15:56 55.52859 79.27373 31661 ft 416 kts 253°
2026-04-29 15:56 55.52019 79.22495 31955 ft 415 kts 253°
2026-04-29 15:56 55.51179 79.17636 32211 ft 414 kts 253°
2026-04-29 15:57 55.50336 79.12778 32277 ft 415 kts 253°
2026-04-29 15:57 55.48641 79.03039 32266 ft 415 kts 252°
2026-04-29 15:58 55.46958 78.93378 32261 ft 415 kts 252°
2026-04-29 15:58 55.45246 78.83674 32262 ft 415 kts 252°
2026-04-29 15:59 55.43532 78.73977 32261 ft 415 kts 252°
2026-04-29 15:59 55.41815 78.64284 32260 ft 414 kts 252°
2026-04-29 16:00 55.40083 78.54609 32250 ft 414 kts 252°
2026-04-29 16:00 55.38344 78.44956 32247 ft 413 kts 252°
2026-04-29 16:01 55.36626 78.35366 32240 ft 413 kts 255°
2026-04-29 16:01 55.36074 78.25316 32240 ft 417 kts 272°
2026-04-29 16:02 55.36791 78.15193 32263 ft 418 kts 274°
2026-04-29 16:02 55.37502 78.05052 32257 ft 418 kts 274°
2026-04-29 16:03 55.38198 77.94910 32263 ft 418 kts 274°
2026-04-29 16:03 55.38885 77.84755 32259 ft 418 kts 274°
2026-04-29 16:04 55.39571 77.74609 32268 ft 418 kts 274°
2026-04-29 16:04 55.40252 77.64477 32260 ft 417 kts 274°
2026-04-29 16:05 55.40926 77.54323 32269 ft 417 kts 274°
2026-04-29 16:05 55.41590 77.44170 32257 ft 417 kts 274°
2026-04-29 16:06 55.42242 77.34013 32261 ft 417 kts 274°
2026-04-29 16:06 55.42880 77.23924 32255 ft 417 kts 274°
2026-04-29 16:07 55.43510 77.13758 32259 ft 417 kts 274°
2026-04-29 16:07 55.44135 77.03581 32251 ft 417 kts 274°
2026-04-29 16:08 55.44759 76.93421 32256 ft 417 kts 274°
2026-04-29 16:08 55.45369 76.83261 32247 ft 417 kts 274°
2026-04-29 16:09 55.45960 76.73163 32253 ft 417 kts 274°
2026-04-29 16:09 55.46548 76.63020 32244 ft 416 kts 273°
2026-04-29 16:10 55.47135 76.52869 32249 ft 416 kts 274°
2026-04-29 16:10 55.47713 76.42737 32241 ft 416 kts 273°
2026-04-29 16:11 55.48280 76.32591 32246 ft 415 kts 273°
2026-04-29 16:11 55.48834 76.22458 32236 ft 415 kts 273°
2026-04-29 16:12 55.49385 76.12335 32240 ft 414 kts 273°
2026-04-29 16:12 55.49921 76.02216 32229 ft 414 kts 273°
2026-04-29 16:13 55.50444 75.92166 32231 ft 414 kts 273°
2026-04-29 16:13 55.50964 75.82048 32217 ft 414 kts 273°
2026-04-29 16:14 55.51466 75.71928 32227 ft 414 kts 273°
2026-04-29 16:14 55.51959 75.61809 32220 ft 414 kts 273°
2026-04-29 16:15 55.52449 75.51686 32222 ft 414 kts 273°
2026-04-29 16:15 55.52932 75.41574 32213 ft 414 kts 273°
2026-04-29 16:16 55.53408 75.31445 32213 ft 414 kts 273°
2026-04-29 16:16 55.53868 75.21328 32202 ft 414 kts 273°
2026-04-29 16:17 55.54313 75.11269 32203 ft 414 kts 273°
2026-04-29 16:17 55.54765 75.01113 32198 ft 414 kts 273°
2026-04-29 16:18 55.55208 74.90971 32201 ft 414 kts 273°
2026-04-29 16:18 55.55638 74.80815 32190 ft 415 kts 273°
2026-04-29 16:19 55.56061 74.70647 32188 ft 415 kts 274°
2026-04-29 16:19 55.56480 74.60472 32182 ft 415 kts 273°
2026-04-29 16:20 55.56890 74.50290 32188 ft 416 kts 274°
2026-04-29 16:20 55.57298 74.40100 32178 ft 416 kts 274°
2026-04-29 16:21 55.57691 74.29899 32180 ft 416 kts 274°
2026-04-29 16:21 55.58072 74.19664 32176 ft 417 kts 274°
2026-04-29 16:22 55.58455 74.09445 32178 ft 417 kts 274°
2026-04-29 16:22 55.58832 73.99218 32170 ft 417 kts 274°
2026-04-29 16:23 55.59201 73.88969 32173 ft 417 kts 274°
2026-04-29 16:23 55.59564 73.78724 32174 ft 418 kts 274°
2026-04-29 16:24 55.59918 73.68471 32178 ft 418 kts 274°
2026-04-29 16:24 55.60353 73.58288 32176 ft 418 kts 276°
2026-04-29 16:25 55.61035 73.48090 32180 ft 418 kts 277°
2026-04-29 16:25 55.61753 73.37892 32179 ft 417 kts 277°
2026-04-29 16:26 55.62404 73.27682 32183 ft 417 kts 277°
2026-04-29 16:26 55.63013 73.17481 32183 ft 417 kts 276°
2026-04-29 16:27 55.63418 73.07252 32188 ft 417 kts 271°
2026-04-29 16:27 55.63383 72.96968 31987 ft 417 kts 268°
2026-04-29 16:27 55.63365 72.91824 32161 ft 420 kts 267°
2026-04-29 16:28 55.63344 72.86635 32170 ft 423 kts 267°
2026-04-29 16:28 55.63299 72.76227 32186 ft 423 kts 267°
2026-04-29 16:29 55.63239 72.65841 32186 ft 422 kts 266°
2026-04-29 16:29 55.63171 72.55454 32187 ft 421 kts 266°
2026-04-29 16:30 55.63104 72.45164 32188 ft 420 kts 266°
2026-04-29 16:30 55.63018 72.34839 32185 ft 419 kts 266°
2026-04-29 16:31 55.62925 72.24525 32181 ft 419 kts 266°
2026-04-29 16:31 55.62828 72.14215 32180 ft 418 kts 266°
2026-04-29 16:32 55.62712 72.03927 32177 ft 418 kts 266°
2026-04-29 16:32 55.62585 71.93652 32175 ft 417 kts 266°
2026-04-29 16:33 55.62394 71.78256 32172 ft 417 kts 266°
2026-04-29 16:33 55.62263 71.68055 32168 ft 416 kts 265°
2026-04-29 16:34 55.62113 71.57818 32166 ft 416 kts 265°
2026-04-29 16:34 55.61956 71.47592 32169 ft 415 kts 265°
2026-04-29 16:35 55.61798 71.37372 32167 ft 415 kts 265°
2026-04-29 16:35 55.61624 71.27181 32165 ft 414 kts 265°
2026-04-29 16:36 55.61436 71.17005 32165 ft 413 kts 265°
2026-04-29 16:36 55.61253 71.06843 32166 ft 413 kts 265°
2026-04-29 16:37 55.61064 70.96698 32162 ft 412 kts 265°
2026-04-29 16:37 55.60899 70.88276 32163 ft 412 kts 265°
2026-04-29 16:38 55.60692 70.78163 32160 ft 411 kts 265°
2026-04-29 16:38 55.60479 70.68066 32158 ft 411 kts 265°
2026-04-29 16:39 55.60226 70.56327 32156 ft 410 kts 264°
2026-04-29 16:39 55.60033 70.47888 32154 ft 409 kts 264°
2026-04-29 16:40 55.59794 70.37900 32153 ft 409 kts 264°
2026-04-29 16:40 55.59548 70.27846 32149 ft 408 kts 264°
2026-04-29 16:41 55.59294 70.17828 32152 ft 408 kts 264°
2026-04-29 16:41 55.59032 70.07814 32130 ft 407 kts 264°
2026-04-29 16:42 55.58763 69.97806 32150 ft 407 kts 264°
2026-04-29 16:42 55.58487 69.87804 32141 ft 407 kts 264°
2026-04-29 16:43 55.58206 69.77808 32143 ft 407 kts 264°
2026-04-29 16:43 55.57909 69.67830 32134 ft 406 kts 264°
2026-04-29 16:44 55.57604 69.57866 32131 ft 406 kts 264°
2026-04-29 16:44 55.57295 69.47971 32136 ft 406 kts 264°
2026-04-29 16:45 55.56980 69.38011 32134 ft 405 kts 263°
2026-04-29 16:45 55.56655 69.28063 32130 ft 405 kts 263°
2026-04-29 16:46 55.56326 69.18103 32128 ft 405 kts 264°
2026-04-29 16:46 55.56161 69.08146 32135 ft 406 kts 265°
2026-04-29 16:47 55.56093 68.98184 32136 ft 406 kts 265°
2026-04-29 16:47 55.55999 68.88207 32139 ft 405 kts 265°
2026-04-29 16:48 55.55869 68.78260 32141 ft 405 kts 265°
2026-04-29 16:48 55.55722 68.68324 32142 ft 404 kts 265°
2026-04-29 16:49 55.55564 68.58457 32142 ft 404 kts 265°
2026-04-29 16:49 55.55401 68.48537 32143 ft 404 kts 264°
2026-04-29 16:50 55.55231 68.38630 32143 ft 403 kts 264°
2026-04-29 16:50 55.55053 68.28726 32145 ft 403 kts 264°
2026-04-29 16:51 55.54865 68.18839 32146 ft 403 kts 264°
2026-04-29 16:51 55.54675 68.08956 32147 ft 403 kts 264°
2026-04-29 16:52 55.54475 67.99062 32150 ft 403 kts 264°
2026-04-29 16:52 55.54321 67.89176 32152 ft 402 kts 265°
2026-04-29 16:53 55.54184 67.79367 32149 ft 402 kts 265°
2026-04-29 16:53 55.54027 67.69514 32153 ft 401 kts 264°
2026-04-29 16:54 55.53856 67.59655 32153 ft 401 kts 264°
2026-04-29 16:54 55.53679 67.49820 32149 ft 401 kts 264°
2026-04-29 16:55 55.53495 67.40004 32149 ft 400 kts 264°
2026-04-29 16:55 55.53298 67.30174 32154 ft 400 kts 264°
2026-04-29 16:56 55.53091 67.20363 32165 ft 400 kts 264°
2026-04-29 16:56 55.52876 67.10553 32164 ft 400 kts 264°
2026-04-29 16:57 55.52655 67.00751 32163 ft 399 kts 264°
2026-04-29 16:57 55.52431 66.90960 32166 ft 399 kts 264°
2026-04-29 16:58 55.52282 66.84481 32165 ft 399 kts 264°